Theta_e
327 327 326 325 325 325 324 324 326 328 327 325 326 326 328 328 329 329 329 330 332 333 333 328 324 322 318 316 322 320 321 320 319 319 318 322 324 322
327 327 327 325 324 324 325 324 325 324 326 325 326 327 328 329 329 329 328 331 331 333 329 326 321 318 320 320 319 313 319 320 317 320 323 323 321 317
327 327 327 327 326 326 326 326 324 325 325 325 327 329 330 330 329 328 330 332 332 330 324 321 319 317 322 320 316 316 316 318 321 323 321 317 315 314
328 327 328 328 327 327 327 327 326 325 325 326 324 323 324 327 327 327 327 325 323 323 320 319 320 321 319 322 321 318 320 322 322 319 316 315 313 311
328 328 328 328 327 327 326 326 325 325 325 324 321 320 320 321 321 320 321 319 321 320 320 320 320 319 317 316 318 322 322 320 317 315 314 311 310 308
328 328 328 328 327 327 325 325 324 324 324 321 319 319 319 319 319 319 318 317 317 317 320 319 318 317 317 321 319 318 317 315 314 312 310 309 307 299
329 329 328 328 327 326 324 324 324 323 322 321 320 318 318 318 318 317 317 317 317 318 318 319 319 319 317 314 312 312 316 314 312 310 309 306 298 295
328 328 329 326 325 324 324 324 324 322 321 320 319 319 318 317 317 317 316 316 316 317 317 316 317 316 314 313 313 316 316 313 310 308 304 297 295 293
326 326 325 324 324 323 323 323 323 322 322 320 320 319 319 318 317 317 316 317 316 316 317 313 315 315 315 315 316 317 314 310 307 302 297 295 294 292
327 326 324 324 323 323 323 323 323 322 320 320 320 319 318 318 318 317 317 316 316 316 316 311 313 314 315 316 317 314 309 305 301 297 296 295 293 292
326 325 324 323 322 323 323 322 321 321 321 320 319 319 318 318 318 317 317 316 314 314 314 314 312 314 314 313 312 308 304 301 298 296 296 294 292 292
325 324 324 322 322 323 322 321 321 320 320 319 319 319 319 319 318 318 317 316 314 314 314 314 312 310 306 307 306 304 301 299 298 296 296 294 292 292
323 322 322 322 323 322 322 322 321 321 320 319 319 319 319 319 318 318 317 316 315 315 315 314 312 308 306 305 303 302 301 300 298 297 296 295 292 292
323 323 322 322 323 323 323 323 322 322 321 320 320 320 319 318 318 318 319 315 314 317 314 313 312 309 308 305 305 305 303 302 301 299 297 296 293 295
323 322 322 323 323 323 323 323 323 322 322 320 319 319 320 320 319 318 317 315 314 315 315 315 311 310 309 311 311 309 308 308 305 302 299 297 296 293
323 323 323 323 323 323 322 322 322 322 322 321 320 321 320 319 319 318 318 317 316 316 314 315 314 312 312 311 311 312 312 311 313 309 305 300 297 296
324 323 323 323 322 322 322 322 322 321 321 321 321 320 319 319 319 321 320 317 317 316 316 318 318 317 315 314 312 313 313 313 314 312 309 305 302 298
323 322 323 322 321 321 321 322 322 322 322 321 321 319 317 318 318 321 321 322 322 322 322 322 320 318 317 318 318 316 314 314 314 314 310 305 303 303
324 323 323 323 322 322 321 322 322 322 322 321 319 315 315 317 320 321 323 323 323 323 323 323 320 315 317 320 317 318 317 317 315 313 310 306 303 304
324 324 323 324 323 323 322 322 322 323 322 320 318 317 316 317 319 321 322 322 322 322 321 321 320 317 316 319 319 318 318 315 313 311 308 306 305 303
324 323 324 324 323 323 322 322 322 323 323 322 322 322 322 322 321 321 321 321 323 322 321 321 323 322 320 315 311 314 316 314 310 308 307 303 300 298
325 324 324 324 324 323 322 323 323 323 323 323 323 323 322 322 322 322 321 321 321 322 322 322 322 321 318 315 314 315 314 314 310 305 303 303 303 300
325 325 325 324 324 325 324 323 323 323 323 323 322 322 322 322 322 323 323 323 323 323 323 323 322 320 318 315 314 314 313 310 306 303 302 299 299 299
Wind_Speed
11 12 13 12 14 14 9 10 6 3 1 2 2 3 6 9 11 11 12 13 19 29 39 42 40 40 35 31 27 24 22 21 19 19 18 14 16 14
11 13 12 10 10 13 14 12 8 5 3 2 3 5 7 7 9 12 13 18 23 40 47 44 41 35 32 31 30 24 21 21 20 19 16 16 12 9
10 10 9 9 10 10 11 14 12 8 5 4 5 14 14 13 10 11 21 28 32 45 44 41 39 35 34 30 26 23 21 21 17 16 13 10 10 8
11 11 8 9 9 10 10 12 16 11 12 10 10 15 19 19 23 26 30 35 43 45 42 41 38 34 31 26 25 21 17 16 14 11 10 10 9 6
10 11 9 11 10 9 10 10 15 15 19 18 12 18 20 31 34 35 40 40 44 42 39 38 35 30 26 24 21 17 14 12 9 10 11 10 8 5
6 10 11 13 12 12 12 17 21 23 23 22 22 21 21 23 36 36 34 40 36 35 34 31 27 26 23 20 17 13 10 8 8 10 10 9 7 6
3 8 12 13 11 12 18 22 24 25 25 23 21 22 23 23 29 29 36 34 30 33 31 27 25 25 23 18 12 9 7 8 9 9 9 8 7 7
10 10 12 12 11 14 16 20 20 27 25 22 24 23 22 23 29 32 35 30 13 23 28 24 21 20 18 14 8 8 8 8 8 9 9 7 7 8
13 16 16 15 16 18 19 19 20 26 28 28 27 27 26 30 31 29 28 19 16 26 31 18 16 16 13 12 10 9 9 9 11 10 8 7 7 10
15 17 19 18 20 23 23 25 21 23 28 27 29 29 33 32 29 30 29 30 30 26 20 6 13 11 11 11 11 11 9 10 10 9 8 9 10 12
14 15 15 18 24 27 29 29 31 25 26 30 34 36 39 39 36 34 29 28 16 13 15 13 11 10 11 11 12 12 11 12 11 11 9 10 12 12
13 13 16 25 26 29 33 32 30 31 35 33 32 35 36 34 34 29 33 25 19 11 14 11 15 9 4 11 13 15 16 15 14 14 13 12 13 15
16 20 25 26 25 29 30 34 32 33 33 34 33 31 29 28 25 24 26 32 20 5 21 13 18 15 4 4 16 19 19 18 18 18 17 16 16 17
20 23 23 22 23 25 29 33 32 31 31 32 30 28 26 24 22 23 21 24 13 2 19 19 9 17 9 5 3 13 21 22 22 23 22 20 20 20
22 22 22 19 19 21 29 29 29 29 30 26 23 22 24 22 20 19 17 21 17 2 12 25 10 14 13 7 3 6 7 18 25 27 26 27 26 26
22 22 21 19 21 23 22 22 23 27 30 27 24 25 23 21 20 18 16 17 16 13 7 16 18 12 12 16 15 13 12 8 9 19 28 30 30 30
25 22 20 19 23 23 21 18 22 23 24 26 27 25 24 23 19 16 14 16 10 12 13 14 15 17 19 19 18 21 21 23 23 22 21 26 30 32
23 19 18 18 19 20 17 18 20 21 23 26 25 24 23 22 20 17 15 14 14 15 15 15 16 15 17 20 24 25 24 27 25 24 23 21 23 25
19 17 16 17 18 18 19 18 20 21 20 23 25 25 24 21 20 17 16 15 15 16 16 16 14 13 8 7 9 15 21 22 20 20 22 23 19 23
20 20 20 21 22 21 18 16 20 23 23 24 25 25 25 23 22 19 18 18 17 18 19 20 22 22 16 12 8 17 19 20 21 20 18 20 22 20
20 21 23 24 23 22 21 17 21 26 28 27 27 27 26 24 22 21 19 22 20 16 17 22 32 29 27 23 16 23 29 26 23 22 18 18 16 14
23 22 22 22 25 25 22 21 23 26 28 28 27 27 26 26 22 22 21 20 24 24 27 28 27 24 22 23 25 23 24 24 21 19 24 24 15 9
25 26 25 24 25 25 24 23 23 23 26 26 25 26 26 24 27 25 23 22 23 21 24 25 30 27 28 28 28 24 26 24 20 18 23 24 26 21
Wind_Direction
249 246 235 224 217 215 214 202 154 157 167 169 126 209 192 191 198 191 188 181 176 172 169 154 148 147 147 151 152 149 149 158 159 167 162 162 154 158
247 240 230 214 213 216 223 218 199 148 136 146 159 154 172 178 186 193 192 171 168 169 159 148 148 148 152 152 150 151 158 157 160 163 163 160 170 170
234 231 232 215 215 223 222 211 214 175 123 119 121 153 145 163 155 148 158 161 167 158 148 145 149 150 150 151 145 151 159 157 160 160 166 172 176 173
234 230 232 206 208 216 214 209 200 172 137 124 106 117 129 148 146 142 140 141 142 146 143 143 149 150 147 148 147 153 155 156 161 167 174 182 177 172
232 220 210 195 190 187 196 177 170 163 141 130 118 118 112 123 113 115 124 118 127 135 140 143 144 146 147 155 149 154 159 163 169 178 177 174 179 193
206 208 209 199 193 177 175 160 146 133 130 121 122 118 117 122 120 118 108 115 121 136 140 139 140 142 145 147 146 152 162 165 173 176 177 186 193 188
208 192 190 193 196 178 163 159 144 136 133 132 129 125 126 132 127 124 119 123 127 135 135 141 145 154 152 139 154 161 164 175 179 186 192 191 191 193
122 137 141 134 146 157 158 161 151 148 143 138 140 139 138 132 133 132 130 134 128 152 146 145 157 147 158 173 168 175 185 190 198 196 189 187 193 186
134 135 132 133 138 139 145 143 140 158 152 145 142 145 140 141 138 133 132 132 130 147 145 128 152 151 165 173 182 192 202 205 194 185 190 201 206 201
134 140 140 142 144 142 137 130 129 146 149 142 142 143 141 138 136 140 138 125 133 144 147 111 151 159 171 184 192 197 201 189 188 198 209 217 215 212
142 145 143 147 142 141 134 120 118 126 139 139 141 145 145 149 152 144 133 133 130 144 156 148 160 165 189 194 197 197 192 198 208 216 226 230 226 220
132 140 148 143 141 136 126 121 117 118 124 127 133 140 151 155 157 159 154 141 137 139 172 155 168 169 183 217 207 205 203 208 218 226 233 235 229 226
129 133 139 143 141 139 139 134 128 132 132 134 138 146 153 160 167 174 167 161 149 128 183 172 181 185 182 171 210 215 217 222 229 235 237 239 236 237
134 139 141 144 149 143 147 139 136 139 138 140 147 156 162 169 173 176 177 174 152 53 187 189 186 190 187 179 193 222 227 231 235 240 242 244 241 241
139 141 142 147 151 153 147 148 150 153 150 149 157 168 175 171 169 172 180 184 198 25 177 195 210 204 210 219 204 218 216 239 241 244 244 243 242 240
140 141 145 145 151 143 147 154 160 161 163 165 169 174 172 172 175 180 185 196 213 231 224 209 222 239 232 242 249 253 250 241 256 250 250 248 247 246
146 145 144 140 145 151 155 161 168 169 173 172 171 171 176 178 178 179 189 194 202 212 218 223 231 242 249 255 256 256 257 261 265 263 256 252 250 248
150 147 151 151 155 163 166 168 176 179 178 177 178 179 179 184 190 197 203 206 215 226 233 238 240 243 255 265 257 258 262 263 265 264 256 253 257 255
156 158 157 164 169 172 180 185 186 187 186 188 189 191 192 196 200 209 215 219 229 237 243 244 242 229 240 261 281 268 253 267 264 260 254 245 255 266
180 175 177 183 188 191 192 195 196 195 196 196 200 203 205 208 211 221 227 232 238 244 248 248 246 240 228 247 268 286 280 264 260 257 252 247 253 258
193 194 196 199 201 203 204 205 206 205 206 208 211 213 215 218 224 230 236 245 247 246 251 251 262 272 266 260 266 264 272 269 258 252 256 237 234 235
203 206 207 206 208 210 209 212 215 216 217 219 221 224 226 229 233 238 242 244 250 251 257 268 269 268 256 242 246 256 262 273 266 254 248 246 233 213
218 217 216 217 219 221 222 221 222 223 223 224 224 227 228 229 234 239 244 246 252 254 259 260 266 260 257 253 253 256 264 264 264 252 248 237 233 243